TimeCST,TemperatureF,Dew PointF,Humidity,Sea Level PressureIn,VisibilityMPH,Wind Direction,Wind SpeedMPH,Gust SpeedMPH,PrecipitationIn,Events,Conditions,WindDirDegrees,DateUTC
12:53 AM,30.9,18.0,59,30.13,10.0,NNW,13.8,-,N/A,,Clear,340,2014-01-19 06:53:00
1:53 AM,27.0,17.1,66,30.13,10.0,NNW,9.2,-,N/A,,Clear,340,2014-01-19 07:53:00
2:53 AM,27.0,16.0,63,30.14,10.0,Calm,Calm,-,N/A,,Clear,0,2014-01-19 08:53:00
3:53 AM,23.0,16.0,74,30.17,10.0,West,4.6,-,N/A,,Clear,260,2014-01-19 09:53:00
4:53 AM,23.0,16.0,74,30.17,10.0,SW,3.5,-,N/A,,Clear,230,2014-01-19 10:53:00
5:53 AM,21.0,16.0,81,30.16,10.0,WSW,3.5,-,N/A,,Clear,240,2014-01-19 11:53:00
6:53 AM,21.9,16.0,78,30.19,10.0,SW,6.9,-,N/A,,Clear,230,2014-01-19 12:53:00
7:53 AM,24.1,18.0,77,30.16,10.0,SW,5.8,-,N/A,,Clear,220,2014-01-19 13:53:00
8:53 AM,28.9,19.9,69,30.17,10.0,SW,10.4,-,N/A,,Clear,230,2014-01-19 14:53:00
9:53 AM,35.1,21.0,57,30.19,10.0,SW,12.7,-,N/A,,Clear,230,2014-01-19 15:53:00
10:53 AM,41.0,23.0,49,30.19,10.0,WSW,13.8,17.3,N/A,,Clear,250,2014-01-19 16:53:00
11:53 AM,45.0,23.0,42,30.14,10.0,WSW,9.2,-,N/A,,Clear,240,2014-01-19 17:53:00
12:53 PM,50.0,24.1,36,30.08,10.0,SSW,12.7,18.4,N/A,,Clear,210,2014-01-19 18:53:00
1:53 PM,53.1,23.0,31,30.05,10.0,WSW,12.7,-,N/A,,Clear,240,2014-01-19 19:53:00
2:53 PM,54.0,19.9,26,30.02,10.0,SW,10.4,20.7,N/A,,Clear,230,2014-01-19 20:53:00
3:53 PM,54.0,21.9,29,29.99,10.0,SSW,12.7,-,N/A,,Clear,210,2014-01-19 21:53:00
4:53 PM,53.1,21.0,29,29.99,10.0,SSW,11.5,-,N/A,,Clear,210,2014-01-19 22:53:00
5:53 PM,48.9,23.0,36,29.99,10.0,SSW,10.4,-,N/A,,Clear,200,2014-01-19 23:53:00
6:53 PM,46.0,23.0,40,29.99,10.0,SSW,9.2,-,N/A,,Clear,200,2014-01-20 00:53:00
7:53 PM,46.9,23.0,39,29.98,10.0,SSW,13.8,-,N/A,,Clear,210,2014-01-20 01:53:00
8:53 PM,46.0,23.0,40,29.97,10.0,SW,12.7,20.7,N/A,,Clear,220,2014-01-20 02:53:00
9:53 PM,45.0,24.1,44,29.98,10.0,SW,9.2,-,N/A,,Clear,220,2014-01-20 03:53:00
10:53 PM,43.0,24.1,47,29.97,10.0,SSW,8.1,-,N/A,,Clear,210,2014-01-20 04:53:00
11:53 PM,42.1,25.0,51,29.95,10.0,SSW,8.1,-,N/A,,Clear,210,2014-01-20 05:53:00